Location: Pitton
(51.0667°N, 1.7000°W)
Time: 04:20:44
(UTC+00:00)

ERBS - Pass Details

Date: 17 September 2019
Orbit: 418 x 425 km, 57.0° (Epoch: 19 October)

Event Time Altitude Azimuth Distance (km) Brightness Sun altitude
Rises 19:58:18 0° 298° (WNW) 2,395 7.9 -16.1°
Reaches altitude 10° 20:00:28 10° 306° (NW) 1,527 6.4 -16.5°
Maximum altitude 20:03:45 43° 19° (NNE) 615 3.1 -16.9°
Enters shadow 20:04:43 33° 63° (ENE) 740 3.1 -17.1°
